Location: Waco, TX
(31.5480°N, 97.1670°W)
Time: 02:58:23
(UTC-05:00)

ISS - Pass Details

Date: 18 February 2018
Orbit: 402 x 406 km, 51.6° (Epoch: 18 June)

Event Time Altitude Azimuth Distance (km) Brightness Sun altitude
Rises 09:13:55 0° 230° (SW) 2,324 -0.2 24.1°
Reaches altitude 10° 09:16:00 10° 234° (SW) 1,464 -1.1 24.5°
Maximum altitude 09:19:15 63° 316° (NW) 458 -3.5 25.0°
Drops below altitude 10° 09:22:31 10° 38° (NE) 1,464 -0.9 25.6°
Sets 09:24:37 0° 42° (NE) 2,324 0.1 26.0°
